Weather Roundup
Issued by NWS Chicago, IL

Home | Current Version | Previous Version | Graphics & Text | Print | Product List | Glossary On
Versions: 1 2 3 4 5 6 7 8 9 10 11 12 13 14 15 16 17 18 19 20 21 22 23 24 25 26 27 28 29 30 31 32 33 34 35 36 37 38 39 40 41 42 43 44 45 46 47 48 49 50
000
NZUS59 KLOT 280212
HRRLOT

CHICAGO AREA WEATHER ROUNDUP
NATIONAL WEATHER SERVICE CHICAGO/ROMEOVILLE IL
800 PM CST MON FEB 27 2017

NOTE: "FAIR" INDICATES FEW OR NO CLOUDS BELOW 12,000 FEET WITH NO
SIGNIFICANT WEATHER AND/OR OBSTRUCTIONS TO VISIBILITY.

* THESE STATIONS ARE NOT UNDER NWS QUALITY CONTROL. THEY ALSO MAY NOT
  REPORT WEATHER SUCH AS PRECIPITATION OR FOG.

ILZ005-006-012>014-019>023-280300-
NORTHEAST ILLINOIS

CITY           SKY/WX    TMP DP  RH WIND       PRES   REMARKS
OHARE          CLOUDY    45  34  65 SE9       30.06S
MIDWAY         CLOUDY    50  33  52 SE9       30.07S
AURORA         CLOUDY    45  33  63 SE8       30.04F
LANSING*       CLOUDY    46  37  71 SE8       30.08S
JOLIET*        PTCLDY    49  37  64 SE6       30.06S
WAUKEGAN       CLOUDY    40  34  79 SE8       30.05F
DUPAGE AIRPORT CLOUDY    45  31  58 SE7       30.04S
WHEELING       CLOUDY    43  33  68 SE5       30.07S
KANKAKEE*      MOCLDY    45  36  70 CALM      30.09S
MORRIS*        CLOUDY    47  35  63 SE8       30.04S
LEWIS AIRPORT* CLOUDY    47  38  71 SE12      30.06S
NORTHERLY ISL    N/A     41  35  79 SE7         N/A
$$

WIZ051-052-058>065-066-070>072-280300-
SOUTHEAST WISCONSIN

CITY           SKY/WX    TMP DP  RH WIND       PRES   REMARKS
MILWAUKEE      PTCLDY    40  32  73 S5        30.06S
KENOSHA*       PTCLDY    41  33  73 SE9       30.06S
RACINE*        PTCLDY    42  33  70 S10       30.07F
WAUKESHA       CLOUDY    37  32  81 SE6       30.06S
WEST BEND      CLOUDY    36  32  87 CALM      30.05S
$$

INZ001>003-010>013-019-020-280300-
NORTHWEST INDIANA

CITY           SKY/WX    TMP DP  RH WIND       PRES   REMARKS
GARY*          PTCLDY    50  32  50 SE8       30.09R
MICHIGAN CITY* NOT AVBL
RENSSELAER*    NOT AVBL
VALPARAISO     CLOUDY    47  37  68 SE12G18   30.11R
$$

LMZ740>746-280300-
SOUTHERN LAKE MICHIGAN

STATION/POSITION TIME  SKY/WX   TEMP WIND        PRES    VSBY
                                AIR  DIR/SP/G
                 (UTC)          (F)  (DEG/KT/KT) (MB)    (MI)
HARRISON CRIB    0140            44  150/ 14/ 16   N/A
BURNHAM HARBOR   0200            41  120/  5/  7   N/A
CALUMET HARBOR   0148            50  150/ 10/ 15 1018.0R
BURNS HARBOR     0140            49  140/  9/ 15 1019.3S
MICHIGAN CITY    0140            48  130/  9/ 11   N/A
$$

ABBREVIATIONS USED IN REMARKS
   TC - TEMPERATURE IN CELSIUS
  WCI - WIND CHILL INDEX
   HX - HEAT INDEX
  VSB - VISIBILITY
$$




USA.gov is the U.S. government's official web portal to all federal, state and local government web resources and services.